Fosston, MN

1:26 PM CST on February 08, 2016 (GMT -0600)
Fosston Municipal

Weather History for KFSE - March, 2013

Change the Weather History Date:

Tuesday, March 26, 2013

  Actual Average (WUND) Record (WUND)
Temperature  
Mean Temperature 16 °F -  
Max Temperature 33 °F - - (-1)
Min Temperature -2 °F - - (-1)
Degree Days  
Heating Degree Days 50    
Moisture  
Dew Point 5 °F    
Average Humidity 75    
Maximum Humidity 100    
Minimum Humidity 48    
Precipitation  
Precipitation 0.00 in - - ()
Sea Level Pressure  
Sea Level Pressure 30.29 in    
Wind  
Wind Speed 0 mph (NW)    
Max Wind Speed 6 mph    
Max Gust Speed -    
Visibility 7 miles    
Events Fog , Snow    
Averages and records for this station are not official NWS values.
T = Trace of Precipitation, MM = Missing Value Source: NWS Daily Summary

Daily Weather History Graph

Daily Weather History Graph

Search for Another Location

Airport or City:

Trip Planner

Search our weather history database for the weather conditions in past years. The results will help you decide how hot, cold, wet, or windy it might be!

Date:

Astronomy

Mar. 26, 2013 Rise Set
Actual Time 7:13 AM CDT 7:44 PM CDT
Civil Twilight 6:42 AM CDT 8:15 PM CDT
Nautical Twilight 6:05 AM CDT 8:52 PM CDT
Astronomical Twilight 5:27 AM CDT 9:30 PM CDT
Moon 7:24 PM CDT (3/26) 6:31 AM CDT (3/26)
Length of Visible Light 13h 33m
Length of Day
12h 31m
Waxing Gibbous, 99% of the Moon is Illuminated
Mar 26
Waxing Gibbous
Mar 27
Full
Apr 2
Last Quarter
Apr 10
New
Apr 18
First Quarter

Hourly Weather History & Observations

Time (CDT) Temp. Windchill Dew Point Humidity Pressure Visibility Wind Dir Wind Speed Gust Speed Precip Events Conditions
12:15 AM 3.2 °F - 1.4 °F 92% 30.30 in 10.0 mi Calm Calm - N/A   Clear
12:35 AM 1.4 °F - -0.4 °F 92% 30.29 in 7.0 mi Calm Calm - N/A   Clear
12:55 AM -0.4 °F - -2.2 °F 92% 30.29 in 7.0 mi Calm Calm - N/A   Clear
1:15 AM -0.4 °F - -4.0 °F 85% 30.30 in 10.0 mi Calm Calm - N/A   Clear
1:35 AM -0.4 °F - -4.0 °F 85% 30.30 in 7.0 mi Calm Calm - N/A   Clear
1:56 AM -0.4 °F - -2.2 °F 92% 30.30 in 7.0 mi Calm Calm - N/A Snow Light Snow
2:15 AM -2.2 °F - -5.8 °F 85% 30.29 in 10.0 mi Calm Calm - N/A   Clear
2:35 AM -2.2 °F - -5.8 °F 85% 30.29 in 7.0 mi Calm Calm - N/A   Clear
2:56 AM -0.4 °F - -5.8 °F 78% 30.29 in 7.0 mi Calm Calm - N/A Snow Light Snow
3:15 AM -0.4 °F - -4.0 °F 85% 30.29 in 7.0 mi Calm Calm - N/A   Scattered Clouds
3:35 AM -0.4 °F - -4.0 °F 85% 30.29 in 2.5 mi Calm Calm - N/A   Overcast
3:56 AM -2.2 °F - -5.8 °F 85% 30.29 in 3.0 mi Calm Calm - N/A   Overcast
4:15 AM -2.2 °F - -5.8 °F 85% 30.29 in 0.8 mi Calm Calm - N/A   Overcast
4:35 AM -0.4 °F - -4.0 °F 85% 30.29 in 0.5 mi Calm Calm - N/A Snow Light Snow
4:55 AM -0.4 °F - -2.2 °F 92% 30.29 in 0.5 mi Calm Calm - N/A Fog Light Freezing Fog
5:15 AM -0.4 °F - -2.2 °F 92% 30.28 in 0.5 mi Calm Calm - N/A Fog Light Freezing Fog
5:35 AM -0.4 °F - -2.2 °F 92% 30.29 in 0.2 mi Calm Calm - N/A Fog Light Freezing Fog
5:55 AM -0.4 °F - -4.0 °F 85% 30.29 in 0.5 mi Calm Calm - N/A Fog Light Freezing Fog
6:15 AM -0.4 °F - -4.0 °F 85% 30.29 in 0.2 mi Calm Calm - N/A Fog Light Freezing Fog
6:35 AM -0.4 °F - -4.0 °F 85% 30.29 in 0.2 mi Calm Calm - N/A Fog Light Freezing Fog
6:55 AM -0.4 °F - -4.0 °F 85% 30.30 in 0.2 mi Calm Calm - N/A Snow Light Snow
7:15 AM -0.4 °F - -4.0 °F 85% 30.30 in 0.2 mi Calm Calm - N/A Snow Light Snow
7:35 AM -0.4 °F - -5.8 °F 78% 30.30 in 0.2 mi Calm Calm - N/A Fog Light Freezing Fog
7:55 AM -0.4 °F - -4.0 °F 85% 30.31 in 0.2 mi Calm Calm - N/A Fog Light Freezing Fog
8:15 AM -0.4 °F - -4.0 °F 85% 30.30 in 0.2 mi Calm Calm - N/A Fog Light Freezing Fog
8:35 AM 1.4 °F - -2.2 °F 85% 30.31 in 0.5 mi Calm Calm - N/A Fog Light Freezing Fog
8:55 AM 3.2 °F - -2.2 °F 78% 30.31 in 3.0 mi Calm Calm - N/A   Haze
9:15 AM 6.8 °F - 3.2 °F 85% 30.31 in 4.0 mi Calm Calm - N/A Snow Light Snow
9:35 AM 6.8 °F - 5.0 °F 92% 30.30 in 7.0 mi Calm Calm - N/A Snow Light Snow
9:55 AM 10.4 °F - 10.4 °F 100% 30.30 in 5.0 mi Calm Calm - N/A Snow Light Snow
10:15 AM 12.2 °F - 10.4 °F 92% 30.31 in 7.0 mi Calm Calm - N/A   Clear
10:35 AM 12.2 °F - 10.4 °F 92% 30.30 in 7.0 mi Calm Calm - N/A   Clear
10:55 AM 15.8 °F - 12.2 °F 86% 30.31 in 10.0 mi Calm Calm - N/A   Clear
11:15 AM 15.8 °F - 10.4 °F 79% 30.31 in 10.0 mi Calm Calm - N/A   Clear
11:35 AM 17.6 °F - 12.2 °F 79% 30.31 in 10.0 mi Calm Calm - N/A   Clear
11:55 AM 19.4 °F - 12.2 °F 74% 30.31 in 10.0 mi Calm Calm - N/A   Clear
12:15 PM 21.2 °F - 10.4 °F 63% 30.30 in 10.0 mi Calm Calm - N/A   Clear
12:35 PM 24.8 °F - 12.2 °F 59% 30.31 in 10.0 mi Calm Calm - N/A   Clear
12:55 PM 24.8 °F - 10.4 °F 54% 30.31 in 10.0 mi Calm Calm - N/A   Clear
1:15 PM 26.6 °F - 12.2 °F 55% 30.31 in 10.0 mi Calm Calm - N/A   Clear
1:35 PM 28.4 °F - 12.2 °F 51% 30.30 in 10.0 mi Calm Calm - N/A   Clear
1:55 PM 28.4 °F - 12.2 °F 51% 30.30 in 10.0 mi Calm Calm - N/A   Clear
2:15 PM 28.4 °F - 14.0 °F 55% 30.30 in 10.0 mi Calm Calm - N/A   Clear
2:35 PM 30.2 °F - 15.8 °F 55% 30.30 in 10.0 mi Calm Calm - N/A   Clear
2:55 PM 33.8 °F - 15.8 °F 48% 30.29 in 10.0 mi Calm Calm - N/A   Clear
3:15 PM 33.8 °F - 15.8 °F 48% 30.29 in 10.0 mi Calm Calm - N/A   Clear
3:35 PM 32.0 °F 26.4 °F 15.8 °F 51% 30.29 in 10.0 mi NW 5.8 mph - N/A   Clear
3:55 PM 32.0 °F 27.5 °F 15.8 °F 51% 30.29 in 10.0 mi NW 4.6 mph - N/A   Clear
4:15 PM 32.0 °F - 15.8 °F 51% 30.28 in 10.0 mi Calm Calm - N/A   Clear
4:35 PM 32.0 °F 28.7 °F 15.8 °F 51% 30.28 in 10.0 mi WNW 3.5 mph - N/A   Clear
4:55 PM 30.2 °F - 15.8 °F 55% 30.28 in 10.0 mi Calm Calm - N/A   Clear
5:15 PM 30.2 °F - 15.8 °F 55% 30.28 in 10.0 mi Calm Calm - N/A   Clear
5:35 PM 30.2 °F - 15.8 °F 55% 30.28 in 10.0 mi Calm Calm - N/A   Clear
5:55 PM 30.2 °F - 15.8 °F 55% 30.28 in 10.0 mi Calm Calm - N/A   Clear
6:15 PM 28.4 °F - 15.8 °F 59% 30.28 in 10.0 mi Calm Calm - N/A   Clear
6:36 PM 26.6 °F - 15.8 °F 64% 30.27 in 10.0 mi Calm Calm - N/A   Clear
6:55 PM 26.6 °F - 15.8 °F 64% 30.27 in 10.0 mi Calm Calm - N/A   Clear
7:15 PM 24.8 °F - 14.0 °F 64% 30.27 in 10.0 mi Calm Calm - N/A   Clear
7:36 PM 19.4 °F - 10.4 °F 68% 30.27 in 10.0 mi Calm Calm - N/A   Clear
7:55 PM 15.8 °F - 8.6 °F 73% 30.27 in 10.0 mi Calm Calm - N/A   Clear
8:15 PM 12.2 °F - 6.8 °F 79% 30.27 in 10.0 mi Calm Calm - N/A   Clear
8:35 PM 12.2 °F - 6.8 °F 79% 30.27 in 10.0 mi Calm Calm - N/A   Clear
8:55 PM 10.4 °F - 3.2 °F 73% 30.28 in 10.0 mi Calm Calm - N/A   Clear
9:15 PM 8.6 °F - 1.4 °F 73% 30.28 in 10.0 mi Calm Calm - N/A   Clear
9:36 PM 8.6 °F - 3.2 °F 79% 30.29 in 10.0 mi Calm Calm - N/A   Clear
9:55 PM 8.6 °F - 3.2 °F 79% 30.28 in 10.0 mi Calm Calm - N/A   Clear
10:15 PM 6.8 °F - 1.4 °F 79% 30.29 in 10.0 mi Calm Calm - N/A   Clear
10:35 PM 8.6 °F - 1.4 °F 73% 30.29 in 10.0 mi Calm Calm - N/A   Clear
10:55 PM 8.6 °F - 1.4 °F 73% 30.28 in 10.0 mi Calm Calm - N/A   Clear
11:16 PM 6.8 °F - 1.4 °F 79% 30.29 in 10.0 mi Calm Calm - N/A   Clear
11:35 PM 6.8 °F - 1.4 °F 79% 30.29 in 10.0 mi Calm Calm - N/A   Clear
11:55 PM 6.8 °F - 1.4 °F 79% 30.29 in 10.0 mi Calm Calm - N/A   Clear